| time (UTC) | temp F | wind direction | speed MPH | gust MPH | rain 1hr in | rain 24hr in | rain mn in | humidity % | barometer mb |
| 20260508151535 | 67 | 113 | 0.0 | 2.0 | 0.00 | 0.03 | 0.03 | 70 | 1012.1 |
| 20260508150038 | 67 | 174 | 0.0 | 3.0 | 0.00 | 0.03 | 0.03 | 71 | 1012.2 |
| 20260508144540 | 67 | 105 | 1.0 | 3.0 | 0.00 | 0.03 | 0.03 | 72 | 1011.8 |
| 20260508143036 | 67 | 116 | 0.0 | 2.0 | 0.00 | 0.03 | 0.03 | 73 | 1012.2 |
| 20260508141528 | 66 | 122 | 0.0 | 4.0 | 0.00 | 0.03 | 0.03 | 73 | 1012.2 |
| 20260508140034 | 66 | 148 | 0.0 | 5.0 | 0.00 | 0.03 | 0.03 | 75 | 1012.2 |
| 20260508134520 | 64 | 99 | 0.0 | 3.0 | 0.00 | 0.03 | 0.03 | 80 | 1012.3 |
| 20260508133018 | 63 | 144 | 0.0 | 4.0 | 0.00 | 0.03 | 0.03 | 83 | 1012.0 |
| 20260508131515 | 62 | 160 | 0.0 | 2.0 | 0.00 | 0.03 | 0.03 | 85 | 1012.0 |
| 20260508130019 | 62 | 160 | 0.0 | 0.0 | 0.00 | 0.03 | 0.03 | 87 | 1012.4 |
| 20260508124513 | 61 | 160 | 0.0 | 0.0 | 0.00 | 0.03 | 0.03 | 88 | 1012.4 |
| 20260508123013 | 61 | 160 | 0.0 | 0.0 | 0.00 | 0.03 | 0.03 | 88 | 1012.5 |
| 20260508121518 | 61 | 160 | 0.0 | 0.0 | 0.00 | 0.03 | 0.03 | 88 | 1012.1 |
| 20260508120018 | 61 | 160 | 0.0 | 0.0 | 0.00 | 0.03 | 0.03 | 88 | 1012.3 |
| 20260508114526 | 60 | 160 | 0.0 | 0.0 | 0.00 | 0.03 | 0.03 | 88 | 1012.4 |
| 20260508113011 | 60 | 160 | 0.0 | 0.0 | 0.00 | 0.03 | 0.03 | 89 | 1012.4 |
| 20260508111512 | 60 | 160 | 0.0 | 0.0 | 0.00 | 0.03 | 0.03 | 90 | 1012.3 |
| 20260508110009 | 60 | 160 | 0.0 | 0.0 | 0.00 | 0.03 | 0.03 | 90 | 1012.9 |
| 20260508104508 | 60 | 160 | 0.0 | 0.0 | 0.00 | 0.03 | 0.03 | 90 | 1012.2 |
| 20260508103008 | 60 | 160 | 0.0 | 0.0 | 0.00 | 0.03 | 0.03 | 90 | 1011.9 |
| 20260508101508 | 60 | 160 | 0.0 | 0.0 | 0.00 | 0.03 | 0.03 | 90 | 1011.6 |
| 20260508100008 | 60 | 160 | 0.0 | 0.0 | 0.00 | 0.03 | 0.03 | 90 | 1011.4 |
| 20260508094505 | 60 | 160 | 0.0 | 0.0 | 0.00 | 0.03 | 0.03 | 90 | 1011.6 |
| 20260508093012 | 60 | 160 | 0.0 | 0.0 | 0.00 | 0.03 | 0.03 | 89 | 1011.8 |
| 20260508091502 | 61 | 160 | 0.0 | 0.0 | 0.00 | 0.03 | 0.03 | 89 | 1011.9 |
| 20260508084558 | 61 | 160 | 0.0 | 0.0 | 0.03 | 0.03 | 0.03 | 88 | 1011.9 |
| 20260508083055 | 61 | 161 | 0.0 | 2.0 | 0.03 | 0.03 | 0.03 | 88 | 1011.9 |
| 20260508081601 | 62 | 169 | 0.0 | 0.0 | 0.03 | 0.03 | 0.03 | 87 | 1012.7 |
| 20260508080059 | 62 | 169 | 0.0 | 0.0 | 0.03 | 0.03 | 0.03 | 84 | 1013.0 |
| 20260508074553 | 62 | 169 | 0.0 | 0.0 | 0.00 | 0.00 | 0.00 | 82 | 1013.3 |
| 20260508073102 | 62 | 169 | 0.0 | 0.0 | 0.00 | 0.00 | 0.00 | 80 | 1012.8 |
| 20260508071548 | 62 | 169 | 0.0 | 0.0 | 0.00 | 0.00 | 0.00 | 81 | 1012.7 |
| 20260508070048 | 62 | 169 | 0.0 | 0.0 | 0.00 | 0.00 | 0.00 | 81 | 1012.9 |
| 20260508064601 | 62 | 169 | 0.0 | 0.0 | 0.00 | 0.00 | 0.00 | 81 | 1013.0 |
| 20260508063044 | 62 | 169 | 0.0 | 0.0 | 0.00 | 0.00 | 0.00 | 81 | 1013.2 |
| 20260508061552 | 62 | 169 | 0.0 | 0.0 | 0.00 | 0.00 | 0.00 | 81 | 1013.4 |
| 20260508060047 | 62 | 169 | 0.0 | 0.0 | 0.00 | 0.00 | 0.00 | 80 | 1013.4 |
| 20260508054604 | 62 | 169 | 0.0 | 0.0 | 0.00 | 0.00 | 0.00 | 79 | 1013.3 |
| 20260508053038 | 62 | 169 | 0.0 | 0.0 | 0.00 | 0.00 | 0.00 | 79 | 1013.4 |
| 20260508051537 | 62 | 169 | 0.0 | 0.0 | 0.00 | 0.00 | 0.00 | 78 | 1013.4 |
| 20260508050037 | 62 | 169 | 0.0 | 0.0 | 0.00 | 0.00 | 0.00 | 78 | 1013.4 |
| 20260508044534 | 63 | 169 | 0.0 | 0.0 | 0.00 | 0.00 | 0.00 | 77 | 1013.6 |
| 20260508043042 | 63 | 169 | 0.0 | 0.0 | 0.00 | 0.00 | 0.00 | 76 | 1013.4 |
| 20260508041535 | 63 | 169 | 0.0 | 0.0 | 0.00 | 0.00 | 0.00 | 76 | 1013.5 |
| 20260508040037 | 63 | 169 | 0.0 | 0.0 | 0.00 | 0.00 | 0.00 | 75 | 1013.4 |
| 20260508034533 | 63 | 169 | 0.0 | 0.0 | 0.00 | 0.00 | 0.00 | 74 | 1013.2 |
| 20260508033033 | 64 | 169 | 0.0 | 0.0 | 0.00 | 0.00 | 0.00 | 74 | 1013.1 |
| 20260508031531 | 64 | 169 | 0.0 | 0.0 | 0.00 | 0.00 | 0.00 | 73 | 1013.2 |
| 20260508030032 | 64 | 169 | 0.0 | 0.0 | 0.00 | 0.00 | 0.00 | 72 | 1013.1 |
| 20260508024530 | 65 | 169 | 0.0 | 0.0 | 0.00 | 0.00 | 0.00 | 71 | 1013.0 |
| 20260508023029 | 65 | 169 | 0.0 | 0.0 | 0.00 | 0.00 | 0.00 | 70 | 1013.0 |
| 20260508021529 | 65 | 169 | 0.0 | 0.0 | 0.00 | 0.00 | 0.00 | 70 | 1012.7 |
| 20260508020029 | 66 | 169 | 0.0 | 0.0 | 0.00 | 0.00 | 0.00 | 69 | 1012.6 |
| 20260508014528 | 66 | 169 | 0.0 | 0.0 | 0.00 | 0.00 | 0.00 | 68 | 1012.6 |
| 20260508013028 | 66 | 169 | 0.0 | 0.0 | 0.00 | 0.00 | 0.00 | 67 | 1012.6 |
| 20260508011535 | 67 | 169 | 0.0 | 0.0 | 0.00 | 0.00 | 0.00 | 65 | 1012.6 |
| 20260508010030 | 67 | 169 | 0.0 | 0.0 | 0.00 | 0.00 | 0.00 | 64 | 1012.7 |
| 20260508004536 | 67 | 170 | 0.0 | 1.0 | 0.00 | 0.00 | 0.00 | 64 | 1012.6 |
| 20260508003026 | 68 | 170 | 0.0 | 2.0 | 0.00 | 0.00 | 0.00 | 62 | 1012.8 |
| 20260508001528 | 68 | 182 | 0.0 | 3.0 | 0.00 | 0.00 | 0.00 | 62 | 1012.9 |
| 20260508000023 | 68 | 144 | 0.0 | 5.0 | 0.00 | 0.00 | 0.00 | 62 | 1012.8 |
| 20260507234531 | 68 | 117 | 0.0 | 6.0 | 0.00 | 0.00 | 0.00 | 62 | 1012.9 |
| 20260507233027 | 69 | 159 | 1.0 | 7.0 | 0.00 | 0.00 | 0.00 | 63 | 1012.8 |
| 20260507231522 | 69 | 240 | 0.0 | 3.0 | 0.00 | 0.00 | 0.00 | 63 | 1012.8 |
| 20260507230020 | 70 | 273 | 0.0 | 4.0 | 0.00 | 0.00 | 0.00 | 62 | 1012.9 |
| 20260507224523 | 71 | 140 | 0.0 | 4.0 | 0.00 | 0.00 | 0.00 | 58 | 1012.8 |
| 20260507223020 | 72 | 127 | 0.0 | 2.0 | 0.00 | 0.00 | 0.00 | 53 | 1012.9 |
| 20260507221521 | 72 | 112 | 0.0 | 2.0 | 0.00 | 0.00 | 0.00 | 54 | 1012.9 |
| 20260507220018 | 72 | 167 | 0.0 | 5.0 | 0.00 | 0.00 | 0.00 | 54 | 1013.0 |
| 20260507214524 | 72 | 195 | 0.0 | 2.0 | 0.00 | 0.00 | 0.00 | 53 | 1013.0 |
| 20260507213014 | 73 | 128 | 1.0 | 7.0 | 0.00 | 0.00 | 0.00 | 53 | 1013.4 |
| 20260507211515 | 73 | 134 | 0.0 | 4.0 | 0.00 | 0.00 | 0.00 | 54 | 1013.4 |
| 20260507210013 | 74 | 109 | 1.0 | 6.0 | 0.00 | 0.00 | 0.00 | 52 | 1013.7 |
| 20260507204512 | 75 | 121 | 0.0 | 4.0 | 0.00 | 0.00 | 0.00 | 50 | 1013.5 |
| 20260507203010 | 75 | 82 | 0.0 | 3.0 | 0.00 | 0.00 | 0.00 | 46 | 1013.6 |
| 20260507201515 | 74 | 119 | 0.0 | 2.0 | 0.00 | 0.00 | 0.00 | 49 | 1013.9 |
| 20260507200008 | 74 | 144 | 0.0 | 1.0 | 0.00 | 0.00 | 0.00 | 48 | 1014.1 |
| 20260507194506 | 75 | 163 | 1.0 | 5.0 | 0.00 | 0.00 | 0.00 | 45 | 1014.3 |
| 20260507193005 | 75 | 78 | 0.0 | 2.0 | 0.00 | 0.00 | 0.00 | 47 | 1014.4 |
| 20260507191501 | 74 | 47 | 0.0 | 4.0 | 0.00 | 0.00 | 0.00 | 49 | 1014.4 |
| 20260507190058 | 74 | 90 | 2.0 | 5.0 | 0.00 | 0.00 | 0.00 | 48 | 1014.8 |
| 20260507184558 | 73 | 5 | 0.0 | 6.0 | 0.00 | 0.00 | 0.00 | 48 | 1014.9 |
| 20260507183053 | 72 | 64 | 0.0 | 5.0 | 0.00 | 0.00 | 0.00 | 51 | 1015.1 |
| 20260507181551 | 71 | 95 | 1.0 | 8.0 | 0.00 | 0.00 | 0.00 | 51 | 1015.2 |
| 20260507180051 | 71 | 92 | 0.0 | 3.0 | 0.00 | 0.00 | 0.00 | 50 | 1015.5 |
| 20260507174614 | 70 | 19 | 1.0 | 8.0 | 0.00 | 0.00 | 0.00 | 53 | 1016.0 |
| 20260507173044 | 70 | 63 | 0.0 | 6.0 | 0.00 | 0.00 | 0.00 | 54 | 1016.0 |
| 20260507171559 | 69 | 84 | 0.0 | 4.0 | 0.00 | 0.00 | 0.00 | 54 | 1016.6 |
| 20260507170040 | 69 | 63 | 0.0 | 4.0 | 0.00 | 0.00 | 0.00 | 54 | 1016.7 |
| 20260507164538 | 67 | 9 | 0.0 | 5.0 | 0.00 | 0.00 | 0.00 | 55 | 1017.3 |
| 20260507163036 | 66 | 14 | 0.0 | 4.0 | 0.00 | 0.00 | 0.00 | 59 | 1017.2 |
| 20260507161539 | 67 | 80 | 0.0 | 0.0 | 0.00 | 0.00 | 0.00 | 59 | 1017.5 |
| 20260507160042 | 66 | 311 | 0.0 | 0.0 | 0.00 | 0.00 | 0.00 | 62 | 1017.3 |
| 20260507154529 | 65 | 84 | 0.0 | 1.0 | 0.00 | 0.24 | 0.00 | 62 | 1017.5 |
| 20260507153028 | 64 | 105 | 0.0 | 1.0 | 0.00 | 0.24 | 0.00 | 65 | 1017.5 |